QPF
0.00 0.00 0.00 0.00 0.00 0.00 0.00 0.00 0.00 0.00 0.00 0.00 0.00 0.00 0.00 0.00 0.00 0.00 0.00 0.00 0.00 0.00 0.00 0.00 0.00 0.00 0.00 0.00 0.00 0.00 0.00 0.00 0.00 0.00 0.00 0.00 0.00 0.00 0.00 0.01 0.05 0.06 0.01
0.00 0.00 0.00 0.00 0.00 0.00 0.00 0.00 0.00 0.00 0.00 0.00 0.00 0.00 0.00 0.00 0.00 0.00 0.00 0.00 0.00 0.00 0.00 0.00 0.00 0.00 0.00 0.00 0.00 0.00 0.00 0.00 0.00 0.00 0.00 0.00 0.00 0.00 0.00 0.01 0.04 0.04 0.00
0.00 0.00 0.00 0.00 0.00 0.00 0.00 0.00 0.00 0.00 0.00 0.00 0.00 0.00 0.00 0.00 0.00 0.00 0.00 0.00 0.00 0.00 0.00 0.00 0.00 0.00 0.00 0.00 0.00 0.00 0.00 0.00 0.00 0.00 0.02 0.03 0.01 0.00 0.00 0.00 0.00 0.01 0.00
0.00 0.00 0.00 0.00 0.00 0.00 0.00 0.00 0.00 0.00 0.00 0.00 0.00 0.00 0.00 0.00 0.00 0.00 0.00 0.00 0.00 0.00 0.00 0.00 0.00 0.00 0.00 0.00 0.00 0.00 0.00 0.00 0.00 0.00 0.03 0.05 0.01 0.00 0.00 0.00 0.00 0.00 0.00
0.00 0.00 0.00 0.00 0.00 0.00 0.00 0.00 0.00 0.00 0.00 0.00 0.00 0.00 0.00 0.00 0.00 0.00 0.00 0.00 0.00 0.00 0.00 0.00 0.00 0.00 0.00 0.00 0.00 0.00 0.00 0.00 0.00 0.00 0.01 0.02 0.03 0.02 0.01 0.01 0.00 0.00 0.01
0.00 0.00 0.00 0.00 0.00 0.00 0.00 0.00 0.00 0.00 0.00 0.00 0.00 0.00 0.00 0.00 0.00 0.00 0.00 0.00 0.00 0.00 0.00 0.00 0.00 0.00 0.00 0.00 0.00 0.00 0.00 0.00 0.00 0.00 0.00 0.00 0.03 0.04 0.01 0.02 0.03 0.02 0.02
0.00 0.00 0.00 0.00 0.00 0.00 0.00 0.00 0.00 0.00 0.00 0.00 0.00 0.00 0.00 0.00 0.00 0.00 0.00 0.00 0.00 0.00 0.00 0.00 0.00 0.00 0.00 0.00 0.00 0.00 0.00 0.00 0.00 0.00 0.00 0.00 0.02 0.01 0.01 0.02 0.04 0.04 0.04
0.00 0.00 0.00 0.00 0.00 0.00 0.00 0.00 0.00 0.00 0.00 0.00 0.00 0.00 0.00 0.00 0.00 0.00 0.00 0.00 0.00 0.00 0.00 0.00 0.00 0.00 0.00 0.00 0.00 0.00 0.00 0.00 0.00 0.00 0.00 0.00 0.01 0.00 0.00 0.01 0.01 0.03 0.04
0.00 0.00 0.00 0.00 0.00 0.00 0.00 0.00 0.00 0.00 0.00 0.00 0.00 0.00 0.00 0.00 0.00 0.00 0.00 0.00 0.00 0.00 0.00 0.00 0.00 0.00 0.00 0.00 0.00 0.00 0.00 0.00 0.00 0.00 0.00 0.01 0.01 0.01 0.01 0.01 0.01 0.02 0.03
0.00 0.00 0.00 0.00 0.00 0.00 0.00 0.00 0.00 0.00 0.00 0.00 0.00 0.00 0.00 0.00 0.00 0.00 0.00 0.00 0.00 0.00 0.00 0.00 0.00 0.00 0.00 0.00 0.00 0.00 0.00 0.00 0.00 0.00 0.01 0.01 0.02 0.02 0.02 0.01 0.01 0.02 0.03
0.00 0.00 0.00 0.00 0.00 0.00 0.00 0.00 0.00 0.00 0.00 0.00 0.00 0.00 0.00 0.00 0.01 0.03 0.03 0.04 0.02 0.01 0.01 0.00 0.00 0.01 0.01 0.00 0.00 0.01 0.00 0.00 0.00 0.00 0.00 0.01 0.01 0.02 0.02 0.02 0.02 0.03 0.03
0.00 0.00 0.00 0.00 0.00 0.00 0.00 0.00 0.00 0.00 0.01 0.01 0.01 0.04 0.05 0.06 0.03 0.01 0.04 0.04 0.03 0.03 0.01 0.00 0.01 0.01 0.01 0.00 0.05 0.08 0.01 0.00 0.00 0.00 0.00 0.01 0.02 0.03 0.03 0.02 0.03 0.04 0.04
0.00 0.00 0.00 0.00 0.00 0.00 0.00 0.00 0.00 0.00 0.01 0.02 0.01 0.04 0.06 0.05 0.03 0.01 0.01 0.05 0.08 0.06 0.04 0.04 0.04 0.02 0.02 0.03 0.06 0.09 0.03 0.02 0.01 0.00 0.01 0.02 0.03 0.04 0.03 0.02 0.03 0.04 0.04
0.00 0.00 0.00 0.00 0.00 0.00 0.00 0.00 0.00 0.00 0.00 0.00 0.02 0.02 0.04 0.05 0.03 0.02 0.03 0.03 0.07 0.09 0.13 0.09 0.09 0.07 0.07 0.06 0.06 0.05 0.03 0.02 0.01 0.01 0.03 0.03 0.03 0.03 0.04 0.03 0.03 0.03 0.04
0.00 0.00 0.00 0.00 0.00 0.00 0.00 0.00 0.00 0.00 0.00 0.00 0.01 0.01 0.03 0.05 0.05 0.06 0.05 0.05 0.04 0.06 0.11 0.12 0.09 0.10 0.13 0.10 0.06 0.06 0.04 0.02 0.01 0.01 0.03 0.03 0.02 0.02 0.03 0.03 0.03 0.03 0.04
0.00 0.00 0.00 0.00 0.00 0.00 0.00 0.00 0.01 0.00 0.01 0.01 0.01 0.02 0.05 0.06 0.09 0.09 0.10 0.11 0.09 0.11 0.14 0.15 0.12 0.15 0.14 0.16 0.11 0.08 0.06 0.04 0.04 0.03 0.02 0.03 0.04 0.02 0.02 0.03 0.03 0.03 0.03
0.00 0.00 0.00 0.00 0.00 0.00 0.01 0.02 0.02 0.01 0.01 0.02 0.03 0.03 0.06 0.10 0.15 0.14 0.14 0.14 0.15 0.16 0.18 0.15 0.16 0.18 0.15 0.16 0.12 0.10 0.10 0.08 0.05 0.05 0.04 0.05 0.05 0.04 0.03 0.03 0.04 0.03 0.03
0.01 0.00 0.00 0.00 0.00 0.01 0.03 0.03 0.03 0.02 0.03 0.03 0.04 0.06 0.05 0.10 0.13 0.14 0.14 0.14 0.19 0.19 0.18 0.17 0.18 0.20 0.20 0.20 0.19 0.14 0.13 0.13 0.08 0.05 0.05 0.04 0.04 0.03 0.03 0.05 0.05 0.04 0.05
0.01 0.00 0.01 0.01 0.02 0.03 0.04 0.03 0.03 0.03 0.03 0.03 0.04 0.05 0.05 0.06 0.08 0.10 0.10 0.11 0.12 0.13 0.13 0.14 0.22 0.20 0.21 0.22 0.19 0.15 0.12 0.10 0.08 0.05 0.04 0.03 0.03 0.03 0.02 0.03 0.05 0.04 0.05
0.02 0.03 0.04 0.04 0.05 0.06 0.05 0.04 0.03 0.03 0.02 0.02 0.01 0.02 0.02 0.03 0.03 0.04 0.04 0.05 0.06 0.07 0.07 0.09 0.12 0.13 0.13 0.12 0.10 0.11 0.12 0.09 0.08 0.07 0.05 0.03 0.02 0.02 0.02 0.02 0.03 0.04 0.05
0.05 0.09 0.10 0.09 0.05 0.05 0.05 0.03 0.02 0.01 0.01 0.01 0.00 0.00 0.00 0.00 0.00 0.00 0.01 0.01 0.02 0.03 0.04 0.05 0.06 0.06 0.06 0.09 0.09 0.07 0.08 0.08 0.08 0.07 0.06 0.05 0.04 0.03 0.02 0.02 0.01 0.03 0.08
0.12 0.14 0.13 0.09 0.07 0.05 0.04 0.03 0.01 0.01 0.00 0.00 0.00 0.00 0.00 0.00 0.00 0.00 0.00 0.00 0.00 0.01 0.01 0.02 0.03 0.03 0.03 0.07 0.08 0.07 0.06 0.07 0.05 0.03 0.03 0.03 0.02 0.03 0.03 0.02 0.03 0.05 0.06
0.17 0.18 0.13 0.09 0.06 0.04 0.04 0.03 0.02 0.01 0.01 0.01 0.00 0.00 0.00 0.00 0.00 0.00 0.00 0.00 0.00 0.00 0.00 0.01 0.02 0.02 0.03 0.04 0.07 0.08 0.06 0.05 0.05 0.04 0.05 0.04 0.05 0.06 0.04 0.03 0.03 0.06 0.09
0.23 0.21 0.15 0.09 0.06 0.05 0.03 0.03 0.03 0.02 0.01 0.01 0.00 0.00 0.00 0.00 0.00 0.00 0.00 0.00 0.00 0.00 0.00 0.01 0.01 0.02 0.03 0.02 0.05 0.07 0.07 0.08 0.08 0.05 0.07 0.07 0.09 0.09 0.07 0.05 0.05 0.07 0.10
0.15 0.14 0.13 0.10 0.07 0.06 0.04 0.04 0.04 0.04 0.03 0.02 0.02 0.01 0.00 0.00 0.00 0.00 0.00 0.00 0.00 0.00 0.01 0.01 0.01 0.01 0.02 0.02 0.03 0.05 0.07 0.09 0.10 0.08 0.06 0.08 0.09 0.09 0.09 0.08 0.08 0.08 0.11
0.07 0.06 0.06 0.07 0.08 0.07 0.06 0.06 0.06 0.05 0.04 0.03 0.03 0.02 0.01 0.00 0.00 0.00 0.00 0.00 0.00 0.00 0.01 0.01 0.01 0.01 0.02 0.03 0.04 0.05 0.06 0.06 0.08 0.11 0.09 0.10 0.11 0.13 0.14 0.12 0.11 0.11 0.13
MSLP
1008.00 1008.06 1008.32 1008.78 1009.37 1010.00 1010.59 1011.06 1011.38 1011.57 1011.68 1011.78 1011.92 1012.15 1012.47 1012.84 1013.23 1013.57 1013.83 1013.99 1014.08 1014.12 1014.15 1014.20 1014.31 1014.47 1014.65 1014.85 1015.01 1015.14 1015.22 1015.25 1015.27 1015.29 1015.34 1015.42 1015.54 1015.68 1015.84 1015.98 1016.12 1016.24 1016.37
1007.69 1007.92 1008.34 1008.94 1009.62 1010.29 1010.86 1011.27 1011.50 1011.61 1011.66 1011.73 1011.89 1012.17 1012.55 1013.00 1013.44 1013.82 1014.10 1014.25 1014.32 1014.33 1014.34 1014.38 1014.49 1014.65 1014.84 1015.03 1015.19 1015.30 1015.36 1015.37 1015.37 1015.38 1015.43 1015.52 1015.65 1015.81 1015.98 1016.14 1016.29 1016.43 1016.57
1007.44 1007.83 1008.42 1009.14 1009.91 1010.62 1011.17 1011.53 1011.70 1011.74 1011.75 1011.81 1011.98 1012.28 1012.70 1013.17 1013.63 1014.01 1014.26 1014.40 1014.44 1014.44 1014.45 1014.50 1014.63 1014.80 1015.00 1015.19 1015.33 1015.41 1015.43 1015.41 1015.39 1015.39 1015.44 1015.54 1015.69 1015.87 1016.06 1016.24 1016.42 1016.58 1016.74
1007.24 1007.79 1008.52 1009.36 1010.21 1010.95 1011.50 1011.83 1011.96 1011.97 1011.96 1012.01 1012.19 1012.50 1012.92 1013.38 1013.81 1014.14 1014.36 1014.45 1014.47 1014.47 1014.50 1014.59 1014.75 1014.95 1015.17 1015.35 1015.46 1015.50 1015.47 1015.40 1015.34 1015.32 1015.37 1015.48 1015.65 1015.85 1016.07 1016.28 1016.49 1016.68 1016.87
1007.08 1007.75 1008.60 1009.54 1010.45 1011.22 1011.78 1012.11 1012.24 1012.26 1012.26 1012.33 1012.51 1012.82 1013.22 1013.63 1014.00 1014.26 1014.41 1014.46 1014.46 1014.46 1014.53 1014.67 1014.88 1015.12 1015.35 1015.52 1015.60 1015.58 1015.49 1015.36 1015.26 1015.21 1015.24 1015.36 1015.54 1015.77 1016.01 1016.25 1016.48 1016.70 1016.93
1006.95 1007.70 1008.62 1009.62 1010.58 1011.38 1011.96 1012.32 1012.48 1012.53 1012.57 1012.67 1012.87 1013.18 1013.54 1013.89 1014.17 1014.35 1014.42 1014.42 1014.40 1014.43 1014.54 1014.74 1015.00 1015.29 1015.54 1015.69 1015.73 1015.65 1015.49 1015.31 1015.15 1015.07 1015.08 1015.19 1015.38 1015.62 1015.87 1016.13 1016.38 1016.63 1016.88
1006.81 1007.59 1008.55 1009.58 1010.56 1011.38 1011.99 1012.37 1012.58 1012.69 1012.79 1012.94 1013.17 1013.47 1013.80 1014.08 1014.28 1014.37 1014.37 1014.33 1014.30 1014.35 1014.50 1014.76 1015.09 1015.41 1015.67 1015.81 1015.81 1015.68 1015.46 1015.21 1015.00 1014.89 1014.88 1014.98 1015.17 1015.40 1015.66 1015.92 1016.18 1016.44 1016.71
1006.68 1007.45 1008.39 1009.41 1010.38 1011.20 1011.82 1012.23 1012.49 1012.67 1012.83 1013.04 1013.30 1013.61 1013.90 1014.13 1014.26 1014.28 1014.22 1014.15 1014.11 1014.18 1014.38 1014.69 1015.06 1015.42 1015.69 1015.82 1015.78 1015.60 1015.33 1015.04 1014.80 1014.65 1014.63 1014.72 1014.90 1015.13 1015.38 1015.63 1015.88 1016.14 1016.42
1006.57 1007.30 1008.19 1009.15 1010.07 1010.86 1011.47 1011.89 1012.19 1012.41 1012.63 1012.89 1013.19 1013.51 1013.79 1013.98 1014.06 1014.03 1013.94 1013.84 1013.81 1013.90 1014.12 1014.46 1014.86 1015.24 1015.51 1015.63 1015.57 1015.37 1015.08 1014.77 1014.51 1014.36 1014.33 1014.41 1014.58 1014.80 1015.03 1015.27 1015.50 1015.75 1016.02
1006.54 1007.18 1007.99 1008.87 1009.71 1010.43 1011.00 1011.41 1011.71 1011.96 1012.21 1012.50 1012.83 1013.15 1013.43 1013.60 1013.66 1013.61 1013.50 1013.39 1013.37 1013.47 1013.71 1014.06 1014.47 1014.85 1015.12 1015.23 1015.16 1014.96 1014.67 1014.36 1014.12 1013.98 1013.96 1014.06 1014.23 1014.43 1014.65 1014.86 1015.07 1015.29 1015.55
1006.59 1007.15 1007.86 1008.63 1009.37 1010.00 1010.49 1010.85 1011.12 1011.35 1011.61 1011.91 1012.24 1012.58 1012.85 1013.03 1013.10 1013.05 1012.95 1012.85 1012.83 1012.93 1013.16 1013.51 1013.90 1014.26 1014.51 1014.62 1014.56 1014.38 1014.11 1013.85 1013.64 1013.54 1013.55 1013.67 1013.84 1014.05 1014.25 1014.44 1014.62 1014.81 1015.04
1006.72 1007.20 1007.81 1008.47 1009.09 1009.62 1010.02 1010.30 1010.51 1010.71 1010.93 1011.22 1011.54 1011.87 1012.16 1012.35 1012.44 1012.42 1012.33 1012.26 1012.24 1012.33 1012.55 1012.85 1013.21 1013.53 1013.77 1013.87 1013.83 1013.68 1013.47 1013.26 1013.11 1013.06 1013.11 1013.25 1013.44 1013.65 1013.84 1014.01 1014.17 1014.33 1014.53
1006.86 1007.28 1007.81 1008.38 1008.90 1009.33 1009.64 1009.84 1009.98 1010.11 1010.29 1010.53 1010.83 1011.15 1011.44 1011.66 1011.78 1011.80 1011.75 1011.70 1011.69 1011.77 1011.94 1012.20 1012.50 1012.77 1012.98 1013.07 1013.05 1012.94 1012.78 1012.64 1012.56 1012.56 1012.66 1012.82 1013.03 1013.24 1013.43 1013.58 1013.72 1013.86 1014.03
1006.93 1007.31 1007.80 1008.31 1008.77 1009.13 1009.37 1009.51 1009.58 1009.66 1009.78 1009.97 1010.23 1010.52 1010.81 1011.05 1011.21 1011.28 1011.28 1011.26 1011.26 1011.32 1011.45 1011.64 1011.87 1012.08 1012.24 1012.32 1012.31 1012.24 1012.14 1012.06 1012.03 1012.08 1012.21 1012.39 1012.60 1012.81 1013.00 1013.15 1013.28 1013.40 1013.54
1006.82 1007.21 1007.69 1008.19 1008.63 1008.97 1009.19 1009.30 1009.34 1009.37 1009.44 1009.58 1009.80 1010.07 1010.35 1010.61 1010.80 1010.92 1010.97 1010.98 1010.99 1011.02 1011.11 1011.23 1011.39 1011.53 1011.64 1011.70 1011.69 1011.65 1011.59 1011.55 1011.55 1011.63 1011.76 1011.95 1012.16 1012.36 1012.54 1012.68 1012.80 1012.91 1013.04
1006.47 1006.89 1007.40 1007.93 1008.41 1008.79 1009.04 1009.18 1009.24 1009.26 1009.30 1009.40 1009.58 1009.81 1010.08 1010.34 1010.56 1010.72 1010.82 1010.86 1010.88 1010.90 1010.94 1011.00 1011.08 1011.16 1011.22 1011.24 1011.23 1011.19 1011.14 1011.12 1011.13 1011.20 1011.33 1011.49 1011.67 1011.85 1012.01 1012.15 1012.27 1012.37 1012.49
1005.88 1006.36 1006.93 1007.52 1008.08 1008.54 1008.88 1009.09 1009.20 1009.26 1009.30 1009.38 1009.52 1009.72 1009.97 1010.22 1010.46 1010.65 1010.79 1010.86 1010.90 1010.91 1010.91 1010.92 1010.93 1010.95 1010.95 1010.93 1010.90 1010.85 1010.80 1010.77 1010.76 1010.80 1010.88 1011.00 1011.13 1011.28 1011.41 1011.54 1011.65 1011.76 1011.88
1005.16 1005.68 1006.31 1006.98 1007.63 1008.21 1008.67 1008.99 1009.19 1009.31 1009.38 1009.45 1009.57 1009.74 1009.95 1010.19 1010.43 1010.64 1010.81 1010.91 1010.96 1010.97 1010.95 1010.92 1010.88 1010.84 1010.79 1010.73 1010.67 1010.60 1010.53 1010.47 1010.43 1010.42 1010.44 1010.48 1010.56 1010.65 1010.75 1010.86 1010.97 1011.09 1011.21
1004.45 1004.99 1005.65 1006.39 1007.13 1007.82 1008.40 1008.85 1009.16 1009.35 1009.46 1009.55 1009.64 1009.77 1009.95 1010.17 1010.40 1010.62 1010.80 1010.94 1011.01 1011.02 1010.99 1010.93 1010.85 1010.76 1010.67 1010.58 1010.49 1010.40 1010.30 1010.21 1010.13 1010.05 1010.00 1009.98 1009.98 1010.01 1010.07 1010.15 1010.25 1010.37 1010.49
1003.93 1004.46 1005.12 1005.87 1006.67 1007.44 1008.12 1008.67 1009.08 1009.35 1009.51 1009.60 1009.68 1009.78 1009.92 1010.10 1010.32 1010.54 1010.74 1010.89 1010.98 1011.00 1010.97 1010.90 1010.80 1010.68 1010.56 1010.45 1010.33 1010.22 1010.11 1009.98 1009.85 1009.73 1009.61 1009.51 1009.44 1009.40 1009.41 1009.46 1009.54 1009.65 1009.79
1003.78 1004.24 1004.84 1005.56 1006.35 1007.14 1007.88 1008.50 1008.97 1009.30 1009.49 1009.59 1009.66 1009.73 1009.83 1009.98 1010.17 1010.38 1010.58 1010.75 1010.86 1010.91 1010.88 1010.81 1010.69 1010.56 1010.43 1010.30 1010.18 1010.05 1009.93 1009.79 1009.63 1009.46 1009.29 1009.13 1008.99 1008.90 1008.85 1008.86 1008.91 1009.01 1009.14
1004.07 1004.43 1004.92 1005.54 1006.26 1007.01 1007.74 1008.37 1008.87 1009.22 1009.43 1009.53 1009.58 1009.61 1009.68 1009.79 1009.96 1010.16 1010.37 1010.55 1010.68 1010.74 1010.73 1010.66 1010.54 1010.41 1010.27 1010.13 1010.01 1009.89 1009.77 1009.63 1009.46 1009.27 1009.07 1008.86 1008.68 1008.53 1008.43 1008.39 1008.42 1008.49 1008.61
1004.82 1005.03 1005.38 1005.86 1006.45 1007.10 1007.74 1008.33 1008.81 1009.15 1009.35 1009.44 1009.46 1009.47 1009.51 1009.59 1009.74 1009.93 1010.13 1010.32 1010.46 1010.54 1010.54 1010.47 1010.36 1010.23 1010.09 1009.96 1009.85 1009.74 1009.63 1009.50 1009.35 1009.16 1008.94 1008.71 1008.49 1008.31 1008.17 1008.09 1008.08 1008.14 1008.24
1005.91 1005.99 1006.16 1006.47 1006.89 1007.39 1007.92 1008.41 1008.82 1009.12 1009.29 1009.36 1009.36 1009.35 1009.36 1009.42 1009.54 1009.72 1009.92 1010.11 1010.25 1010.34 1010.34 1010.28 1010.18 1010.04 1009.90 1009.78 1009.67 1009.58 1009.49 1009.38 1009.24 1009.07 1008.86 1008.63 1008.41 1008.20 1008.04 1007.94 1007.90 1007.93 1008.02
1007.17 1007.13 1007.15 1007.28 1007.52 1007.85 1008.23 1008.61 1008.93 1009.16 1009.29 1009.33 1009.31 1009.28 1009.27 1009.30 1009.41 1009.56 1009.75 1009.93 1010.07 1010.15 1010.16 1010.10 1009.98 1009.84 1009.70 1009.58 1009.47 1009.39 1009.31 1009.22 1009.10 1008.95 1008.76 1008.55 1008.34 1008.14 1007.97 1007.87 1007.83 1007.85 1007.93
1008.43 1008.30 1008.20 1008.18 1008.26 1008.43 1008.66 1008.91 1009.13 1009.29 1009.37 1009.38 1009.33 1009.28 1009.24 1009.26 1009.33 1009.46 1009.62 1009.78 1009.90 1009.97 1009.96 1009.89 1009.77 1009.62 1009.46 1009.32 1009.21 1009.11 1009.03 1008.95 1008.85 1008.72 1008.56 1008.38 1008.19 1008.03 1007.89 1007.81 1007.79 1007.83 1007.93
Thickness
5854 5847 5838 5833 5829 5826 5823 5819 5815 5812 5808 5804 5801 5798 5795 5792 5790 5787 5784 5782 5779 5777 5775 5772 5770 5768 5766 5764 5762 5761 5759 5758 5757 5756 5755 5754 5753 5751 5750 5749 5748 5748 5746
5857 5846 5839 5834 5829 5825 5822 5818 5815 5811 5807 5804 5800 5797 5794 5792 5789 5786 5784 5781 5778 5776 5773 5771 5769 5767 5765 5763 5761 5760 5759 5758 5756 5756 5755 5754 5753 5751 5750 5749 5750 5748 5746
5855 5845 5838 5833 5828 5824 5821 5817 5813 5810 5806 5803 5800 5797 5794 5791 5788 5785 5783 5780 5778 5775 5772 5770 5768 5766 5764 5762 5761 5759 5758 5757 5757 5755 5755 5755 5754 5752 5750 5749 5748 5746 5745
5854 5844 5839 5832 5827 5823 5819 5815 5812 5808 5805 5802 5798 5795 5792 5789 5787 5784 5781 5779 5776 5774 5772 5769 5767 5765 5764 5762 5760 5759 5758 5757 5757 5756 5757 5757 5756 5753 5751 5749 5747 5746 5745
5853 5845 5837 5831 5826 5821 5817 5813 5810 5807 5803 5800 5797 5794 5791 5788 5785 5782 5780 5777 5775 5773 5771 5769 5767 5765 5763 5762 5760 5759 5758 5757 5757 5758 5760 5760 5758 5754 5752 5749 5747 5746 5744
5853 5845 5835 5829 5824 5820 5815 5811 5808 5804 5801 5798 5795 5792 5789 5786 5784 5781 5778 5776 5774 5772 5770 5768 5766 5765 5763 5762 5760 5759 5758 5757 5757 5760 5762 5763 5760 5756 5753 5750 5748 5746 5745
5854 5844 5833 5828 5822 5818 5813 5809 5806 5802 5799 5796 5793 5790 5787 5785 5782 5780 5777 5775 5773 5771 5769 5768 5766 5765 5763 5762 5760 5759 5758 5758 5758 5761 5764 5765 5762 5758 5755 5752 5750 5748 5746
5855 5843 5832 5826 5821 5816 5811 5807 5804 5800 5797 5794 5791 5788 5785 5783 5780 5778 5776 5774 5772 5770 5769 5767 5766 5764 5763 5762 5761 5760 5759 5758 5761 5763 5765 5766 5764 5761 5758 5755 5752 5750 5748
5857 5843 5831 5825 5819 5814 5810 5806 5802 5799 5795 5792 5790 5787 5784 5781 5779 5777 5775 5773 5772 5770 5768 5767 5765 5764 5763 5762 5761 5760 5759 5758 5759 5762 5766 5768 5765 5763 5760 5757 5754 5752 5750
5854 5842 5833 5826 5820 5814 5809 5805 5801 5798 5794 5791 5788 5786 5783 5780 5779 5777 5775 5773 5771 5770 5768 5767 5765 5764 5763 5762 5761 5760 5759 5758 5759 5762 5766 5768 5766 5764 5761 5759 5756 5754 5752
5849 5842 5836 5828 5822 5817 5812 5807 5801 5797 5794 5790 5787 5785 5782 5780 5780 5779 5777 5775 5772 5770 5768 5767 5765 5764 5762 5762 5761 5760 5759 5759 5762 5764 5768 5769 5767 5764 5762 5760 5757 5755 5754
5841 5840 5838 5830 5824 5820 5817 5809 5802 5798 5794 5790 5789 5786 5782 5780 5780 5781 5780 5776 5773 5770 5768 5766 5765 5763 5761 5761 5763 5761 5759 5760 5762 5767 5771 5770 5767 5764 5762 5760 5758 5756 5755
5839 5837 5836 5830 5825 5821 5816 5810 5805 5802 5798 5792 5789 5786 5783 5781 5779 5780 5779 5777 5773 5769 5766 5765 5763 5761 5761 5762 5764 5764 5762 5762 5765 5768 5770 5769 5766 5763 5761 5759 5757 5756 5754
5837 5835 5833 5829 5822 5818 5815 5811 5806 5803 5799 5795 5791 5786 5784 5780 5778 5777 5776 5774 5771 5768 5766 5765 5764 5763 5762 5762 5764 5764 5763 5763 5765 5766 5767 5765 5763 5761 5759 5757 5756 5755 5753
5833 5832 5830 5826 5819 5814 5809 5805 5804 5800 5798 5795 5790 5786 5783 5779 5775 5774 5772 5770 5767 5766 5765 5762 5762 5762 5760 5760 5760 5761 5761 5762 5763 5763 5763 5762 5760 5758 5757 5756 5754 5753 5752
5832 5829 5827 5822 5816 5810 5804 5800 5797 5796 5793 5790 5787 5783 5780 5776 5772 5768 5766 5763 5762 5761 5760 5759 5758 5757 5756 5756 5756 5756 5756 5758 5758 5758 5758 5758 5757 5756 5755 5754 5753 5752 5751
5831 5829 5823 5817 5813 5805 5800 5795 5793 5791 5789 5786 5783 5780 5776 5772 5767 5764 5761 5759 5758 5758 5756 5755 5754 5753 5752 5752 5752 5752 5752 5753 5753 5754 5753 5753 5753 5752 5752 5751 5750 5750 5749
5829 5824 5820 5815 5808 5801 5795 5790 5788 5787 5785 5781 5778 5775 5771 5767 5763 5760 5757 5756 5755 5754 5753 5751 5750 5748 5747 5746 5746 5747 5749 5749 5749 5750 5749 5749 5749 5749 5749 5748 5747 5747 5746
5823 5817 5812 5808 5802 5796 5790 5785 5782 5779 5777 5775 5773 5770 5765 5762 5759 5757 5754 5754 5753 5751 5750 5749 5749 5746 5743 5742 5742 5743 5745 5745 5746 5746 5746 5747 5747 5746 5746 5746 5745 5745 5744
5814 5808 5803 5798 5794 5789 5784 5780 5776 5772 5769 5769 5767 5763 5759 5756 5755 5752 5751 5750 5750 5748 5746 5745 5743 5743 5741 5740 5740 5742 5743 5744 5744 5744 5744 5745 5745 5745 5744 5744 5743 5742 5742
5802 5796 5790 5786 5782 5778 5773 5770 5767 5764 5763 5762 5761 5758 5754 5752 5750 5748 5746 5745 5745 5743 5742 5741 5740 5737 5737 5738 5734 5733 5737 5741 5742 5743 5743 5742 5742 5742 5741 5742 5741 5740 5740
5786 5781 5779 5775 5771 5768 5765 5763 5762 5759 5758 5758 5757 5754 5750 5747 5745 5744 5742 5740 5739 5738 5737 5737 5735 5732 5732 5733 5727 5723 5724 5729 5735 5740 5739 5738 5738 5738 5738 5739 5738 5738 5738
5772 5769 5768 5766 5762 5760 5758 5757 5756 5753 5749 5748 5748 5747 5746 5743 5741 5739 5737 5735 5734 5732 5732 5731 5730 5728 5725 5726 5725 5719 5713 5715 5721 5729 5732 5733 5733 5732 5733 5734 5735 5736 5734
5762 5761 5759 5754 5753 5752 5751 5748 5743 5740 5737 5738 5740 5741 5740 5739 5737 5735 5733 5731 5729 5728 5727 5726 5727 5723 5721 5719 5721 5720 5717 5714 5707 5712 5719 5724 5725 5726 5727 5729 5731 5732 5731
5750 5747 5745 5743 5741 5741 5740 5737 5734 5732 5732 5733 5732 5732 5731 5732 5733 5732 5730 5728 5725 5723 5723 5722 5720 5719 5717 5716 5715 5714 5713 5711 5708 5702 5704 5710 5714 5718 5721 5723 5725 5726 5727
5736 5734 5732 5730 5729 5729 5728 5726 5724 5722 5721 5720 5720 5720 5722 5724 5727 5728 5727 5724 5721 5719 5718 5717 5716 5715 5714 5713 5711 5710 5707 5705 5703 5701 5698 5701 5703 5708 5713 5716 5718 5719 5720